Vertical_Velocity
-1 11 -3 -7 -3 -2 3 4 2 -7 -9 16 -2 -2 -7 -5 3 0 -2 -2 -1 -3 -4 1 5 -0 -0 4 2 1 -4 -4 -3 -2 -0 -0 -2 -1 -2 0 0 1 15 54
9 -2 -7 0 2 4 2 2 -7 -8 -2 14 -1 -9 -4 -0 -6 -2 -1 -3 -3 -0 -3 2 2 2 -2 0 8 0 -0 -2 -0 -2 1 -1 -3 -2 1 -1 -1 -3 -3 1
4 -3 0 4 1 6 -1 2 -2 6 -4 -3 10 -9 -1 -7 3 1 -3 -5 -2 -2 -2 2 0 1 0 -2 3 1 1 -1 -2 -5 3 1 -2 4 -0 -1 -3 -3 2 -0
0 -7 2 2 0 3 3 -1 1 1 5 3 4 -6 -4 -3 -3 2 -2 -1 -3 -2 -2 -1 8 1 0 4 4 4 1 -1 -1 -3 -1 -0 -2 -2 -3 2 -3 1 3 -4
-5 1 1 4 -13 2 -8 1 2 2 2 9 -7 12 -3 2 -1 -3 -3 -3 -2 -4 1 3 1 4 -0 2 0 5 0 0 2 1 -2 -3 -3 -1 -2 -1 -4 -3 1 -5
-5 -1 3 -4 -1 -1 -0 3 2 2 3 6 -7 9 -5 0 5 -1 -1 -0 1 2 -1 1 3 1 1 3 2 1 -2 1 2 -1 -2 -4 -4 -3 5 -2 1 3 1 -3
1 -3 -1 4 7 4 8 5 -0 8 6 -4 0 5 -13 -2 -0 4 1 -1 1 4 -1 2 2 2 4 2 3 1 -0 2 3 -2 -3 -3 -2 -1 -1 -0 -2 -2 -2 1
2 9 1 -0 -4 -0 -3 1 4 1 2 -0 0 -3 9 2 0 0 1 0 1 2 2 5 2 0 5 -0 -1 4 -1 3 2 -1 -1 1 -4 -2 -2 1 3 1 -2 -3
2 1 3 1 -0 4 4 4 -2 4 -0 8 -3 -5 8 -0 -2 -2 -1 -2 -1 1 1 5 1 5 1 3 -3 2 3 3 1 -2 -2 1 -2 -2 -2 -2 -2 0 -1 -2
-3 2 -0 1 4 3 8 2 3 2 2 0 -1 -2 2 -4 -2 -2 -3 -0 -1 -2 1 4 2 -1 4 1 -1 6 2 3 -0 2 -3 1 -1 -1 -0 -0 -1 0 -1 1
1 9 4 6 1 -3 6 4 3 3 4 4 1 4 4 2 2 2 1 1 2 0 1 8 3 7 9 -3 2 4 2 2 -1 -2 1 2 1 -1 -1 -2 -2 -0 1 2
-2 2 1 -13 -5 1 -0 -1 -2 4 3 0 3 2 1 2 2 1 1 0 2 2 3 3 15 4 -1 1 2 1 11 8 3 1 1 1 1 1 1 -0 -2 -2 -1 0
1 -1 2 5 10 6 3 -1 -0 0 1 -0 4 4 2 -1 -2 1 0 0 -1 2 1 6 3 -1 3 13 14 11 11 8 -4 3 3 3 0 -1 -3 -1 3 4 2 -1
3 1 3 2 2 -1 4 2 1 -1 2 -1 -2 -6 0 -0 -0 0 0 0 -0 2 2 6 4 2 6 5 2 8 3 3 -1 12 5 2 4 6 2 2 -2 -2 -1 6
-3 2 4 -1 0 2 0 -1 0 2 -5 5 -5 2 -2 1 0 -0 0 1 -2 -3 -1 6 4 -1 4 8 3 5 3 1 3 5 3 3 2 3 0 1 1 4 5 6
0 -3 2 1 1 2 1 -0 0 0 -1 0 1 -5 2 -0 3 3 1 -2 -2 -0 -1 3 3 2 2 1 7 1 5 -0 3 1 5 4 2 1 1 1 0 1 0 -1
1 2 3 0 -0 2 8 -6 -1 -0 0 3 3 4 -0 -3 -0 0 3 2 -1 -2 -1 -3 5 3 1 -2 4 2 1 1 5 3 -1 2 6 2 -0 3 5 2 0 3
1 3 1 1 2 5 14 -0 0 1 0 -0 -2 -0 2 1 7 -4 7 1 3 1 7 -1 1 6 3 0 1 5 4 -0 2 -3 -3 -4 16 -9 -0 0 6 3 2 1
1 1 0 2 -0 1 3 3 1 5 6 2 3 -1 2 -3 -1 0 2 4 -2 1 1 -1 1 6 -1 1 2 1 -3 -1 -3 -2 5 9 6 -13 -2 2 -1 3 1 1
2 4 10 2 1 -0 8 2 0 2 6 2 2 0 1 4 3 4 2 7 -3 4 4 2 0 1 1 2 4 5 3 8 9 1 -4 3 -19 -3 -2 -3 1 0 1 1
2 2 -0 -0 0 -1 3 1 -0 14 15 1 2 2 -1 2 6 1 0 -3 1 5 1 -1 -2 0 0 -1 -2 -7 -4 -7 -6 2 1 -6 4 2 -1 -4 -1 0 2 0
-3 -1 -1 1 2 4 2 -1 5 10 -1 1 1 3 -1 1 4 2 3 2 2 0 2 -0 0 -2 -0 0 2 -1 -3 0 -4 -3 0 8 -1 -4 4 -8 1 3 4 -1
2 7 5 9 9 4 3 2 2 4 0 1 -0 3 0 -0 2 2 1 2 1 3 1 1 -1 -2 -2 -2 -2 -2 -2 -1 -2 -7 -1 -4 0 1 0 0 1 4 5 2
2 -0 1 2 1 3 3 1 1 2 -1 1 0 0 -2 -4 -1 1 -1 3 1 3 3 1 1 -2 -3 -1 -2 -2 -2 -1 -1 -1 -2 -4 -5 -3 0 2 2 1 -1 -2
5 1 2 3 4 1 -2 3 5 1 1 0 3 2 1 2 3 1 -1 0 2 3 4 1 1 0 -0 0 -1 -1 -0 2 0 -0 1 1 2 0 -1 -1 -1 2 2 -1
1 3 3 4 3 -2 5 3 2 0 1 1 1 1 1 0 -0 2 2 3 2 1 -2 -5 -2 3 1 2 2 1 0 3 3 2 -2 -0 0 1 0 -1 -1 -1 -3 1
Height
1457 1458 1450 1450 1452 1448 1449 1452 1449 1442 1439 1438 1433 1425 1417 1416 1415 1415 1413 1413 1412 1414 1416 1418 1421 1422 1426 1431 1434 1434 1439 1444 1448 1451 1452 1455 1458 1460 1463 1465 1467 1469 1471 1467
1455 1451 1444 1446 1449 1452 1450 1445 1443 1436 1433 1434 1423 1412 1407 1407 1406 1406 1406 1407 1407 1408 1409 1412 1415 1416 1419 1425 1428 1429 1434 1439 1444 1447 1448 1451 1454 1457 1460 1462 1465 1467 1469 1472
1445 1439 1447 1446 1445 1447 1443 1441 1436 1436 1432 1427 1417 1400 1390 1391 1396 1399 1399 1401 1401 1402 1403 1404 1408 1410 1414 1417 1420 1424 1428 1434 1440 1444 1445 1448 1451 1455 1457 1459 1461 1464 1466 1468
1445 1442 1445 1444 1441 1441 1439 1437 1438 1436 1432 1419 1413 1406 1387 1387 1385 1386 1389 1392 1393 1394 1396 1398 1400 1403 1406 1412 1416 1421 1426 1431 1436 1441 1441 1444 1448 1451 1454 1456 1458 1461 1463 1461
1440 1441 1443 1442 1439 1440 1437 1438 1436 1433 1429 1421 1411 1409 1379 1384 1383 1380 1380 1383 1383 1386 1388 1391 1394 1397 1401 1407 1411 1417 1423 1427 1432 1436 1439 1443 1446 1450 1452 1454 1456 1459 1460 1460
1438 1438 1439 1436 1437 1436 1436 1437 1430 1424 1423 1423 1399 1402 1378 1377 1380 1375 1379 1380 1383 1384 1385 1387 1388 1392 1396 1402 1407 1412 1418 1424 1429 1432 1435 1439 1443 1447 1450 1452 1455 1456 1460 1461
1432 1431 1432 1437 1438 1436 1436 1436 1424 1417 1427 1408 1395 1398 1382 1375 1384 1386 1386 1386 1386 1383 1382 1383 1385 1386 1391 1396 1400 1405 1414 1419 1424 1429 1433 1437 1442 1445 1449 1451 1453 1456 1458 1460
1426 1425 1430 1431 1431 1429 1430 1431 1422 1417 1404 1392 1388 1394 1375 1386 1388 1388 1388 1388 1386 1382 1381 1380 1382 1386 1389 1395 1397 1402 1410 1416 1420 1426 1431 1434 1439 1442 1446 1449 1452 1454 1457 1460
1426 1423 1427 1429 1428 1429 1429 1429 1420 1423 1414 1415 1389 1375 1380 1382 1386 1389 1391 1391 1390 1385 1380 1377 1379 1384 1387 1392 1394 1401 1407 1412 1417 1423 1429 1432 1435 1440 1443 1446 1449 1451 1453 1456
1424 1427 1422 1426 1428 1428 1425 1423 1432 1426 1420 1400 1372 1373 1379 1391 1393 1391 1394 1395 1394 1389 1383 1379 1380 1384 1386 1390 1394 1400 1406 1410 1415 1421 1425 1431 1434 1437 1441 1444 1446 1449 1450 1452
1426 1425 1422 1425 1422 1415 1425 1423 1427 1434 1417 1400 1389 1398 1409 1407 1404 1402 1401 1401 1396 1392 1386 1383 1383 1385 1386 1390 1395 1400 1406 1409 1413 1419 1424 1429 1433 1435 1438 1442 1444 1446 1448 1449
1427 1425 1420 1412 1409 1413 1410 1411 1416 1415 1413 1417 1418 1398 1410 1412 1410 1409 1407 1406 1401 1396 1390 1385 1385 1387 1388 1393 1398 1403 1409 1410 1413 1418 1423 1427 1431 1434 1438 1440 1443 1445 1447 1449
1446 1429 1419 1410 1415 1412 1411 1413 1427 1431 1430 1417 1415 1402 1412 1414 1413 1411 1410 1408 1405 1400 1394 1388 1387 1388 1388 1394 1399 1403 1407 1409 1414 1420 1423 1426 1429 1432 1436 1439 1442 1444 1446 1447
1451 1429 1414 1403 1423 1407 1411 1409 1411 1416 1420 1409 1408 1407 1407 1408 1409 1411 1410 1410 1408 1403 1400 1394 1391 1391 1394 1397 1399 1401 1404 1409 1415 1420 1422 1425 1428 1431 1435 1438 1441 1443 1445 1447
1445 1426 1416 1418 1422 1421 1409 1407 1406 1409 1409 1412 1399 1396 1393 1395 1399 1406 1407 1410 1408 1408 1407 1400 1395 1397 1399 1398 1400 1402 1404 1409 1413 1418 1421 1424 1426 1429 1431 1434 1437 1440 1443 1446
1445 1423 1413 1417 1422 1414 1411 1406 1404 1403 1401 1401 1398 1396 1392 1397 1399 1405 1406 1409 1412 1411 1412 1406 1403 1402 1400 1403 1401 1403 1405 1408 1413 1416 1419 1423 1425 1427 1430 1433 1435 1437 1440 1442
1442 1430 1410 1410 1409 1411 1408 1400 1401 1400 1398 1399 1400 1398 1396 1397 1402 1403 1408 1411 1411 1413 1414 1414 1410 1406 1407 1407 1406 1405 1408 1411 1413 1416 1419 1422 1424 1426 1428 1431 1433 1435 1437 1438
1436 1431 1416 1407 1408 1411 1401 1400 1399 1400 1398 1403 1401 1404 1404 1408 1410 1411 1414 1415 1415 1418 1414 1415 1414 1414 1410 1411 1411 1411 1412 1414 1415 1418 1422 1423 1420 1423 1429 1431 1432 1432 1434 1436
1433 1430 1419 1408 1404 1400 1398 1406 1407 1405 1402 1411 1410 1409 1412 1416 1414 1417 1418 1417 1416 1418 1416 1407 1415 1414 1412 1414 1415 1415 1415 1417 1418 1420 1422 1421 1418 1425 1429 1431 1431 1431 1433 1434
1428 1426 1425 1412 1411 1410 1403 1411 1413 1410 1401 1416 1416 1414 1411 1412 1408 1421 1422 1420 1418 1419 1417 1416 1417 1418 1416 1416 1418 1419 1419 1419 1417 1419 1422 1421 1429 1426 1428 1433 1431 1432 1431 1432
1419 1419 1417 1409 1408 1405 1414 1415 1412 1410 1417 1421 1420 1419 1410 1407 1416 1421 1423 1422 1423 1422 1420 1419 1419 1419 1420 1421 1422 1422 1422 1421 1423 1425 1428 1427 1428 1426 1430 1433 1434 1435 1432 1432
1409 1411 1411 1410 1413 1411 1419 1413 1412 1427 1426 1425 1424 1423 1421 1422 1423 1425 1426 1426 1425 1425 1424 1425 1424 1424 1424 1426 1426 1427 1427 1428 1428 1431 1432 1430 1428 1431 1431 1434 1437 1436 1432 1432
1416 1420 1415 1412 1415 1425 1429 1429 1431 1428 1427 1427 1427 1427 1427 1427 1428 1429 1429 1428 1427 1427 1428 1429 1428 1428 1429 1430 1431 1430 1431 1432 1432 1434 1434 1432 1434 1434 1436 1438 1441 1436 1436 1434
1423 1428 1424 1425 1433 1433 1434 1434 1432 1430 1430 1430 1430 1430 1431 1431 1433 1432 1431 1432 1431 1431 1432 1433 1433 1433 1434 1434 1435 1436 1437 1438 1439 1439 1438 1439 1439 1441 1442 1441 1440 1438 1437 1438
1437 1433 1434 1434 1438 1437 1439 1438 1436 1434 1434 1434 1434 1435 1437 1437 1437 1436 1436 1436 1435 1433 1432 1434 1437 1438 1438 1439 1439 1441 1443 1443 1443 1444 1444 1445 1444 1444 1444 1443 1444 1442 1441 1440
1443 1442 1437 1431 1439 1438 1442 1441 1440 1439 1439 1439 1439 1439 1439 1439 1439 1439 1438 1438 1438 1437 1438 1439 1442 1442 1443 1444 1444 1445 1446 1447 1447 1446 1446 1448 1448 1449 1449 1448 1447 1447 1446 1447